Radiation Dose at Monitoring Post of Fukushima Daini Nuclear Power Station
Date,Time,MP-1(microSv/h),MP-2(microSv/h),MP-3(microSv/h),MP-4(microSv/h),MP-5(microSv/h),MP-6(microSv/h),MP-7(microSv/h),Wind Direction,Wind Velocity(m/s),Rain
2019/08/25,00:00,0.191,0.167,0.289,0.271,0.268,0.145,0.089,-,CALM,No
2019/08/25,00:10,0.189,0.168,0.291,0.272,0.270,0.147,0.090,-,CALM,No
2019/08/25,00:20,0.189,0.168,0.288,0.271,0.267,0.145,0.090,south,0.8,No
2019/08/25,00:30,0.191,0.168,0.289,0.270,0.269,0.145,0.089,-,CALM,No
2019/08/25,00:40,0.189,0.169,0.290,0.273,0.269,0.146,0.089,-,CALM,No
2019/08/25,00:50,0.190,0.167,0.287,0.270,0.267,0.144,0.090,-,CALM,No
2019/08/25,01:00,0.190,0.168,0.290,0.271,0.266,0.145,0.089,-,CALM,No
2019/08/25,01:10,0.188,0.168,0.289,0.273,0.270,0.146,0.090,-,CALM,No
2019/08/25,01:20,0.190,0.167,0.288,0.269,0.267,0.146,0.090,-,CALM,No
2019/08/25,01:30,0.192,0.168,0.290,0.272,0.266,0.146,0.090,-,CALM,No
2019/08/25,01:40,0.189,0.167,0.288,0.273,0.270,0.145,0.090,-,CALM,No
2019/08/25,01:50,0.192,0.168,0.290,0.268,0.268,0.146,0.090,east,0.7,Yes
2019/08/25,02:00,0.191,0.169,0.289,0.274,0.266,0.147,0.089,-,CALM,No
2019/08/25,02:10,0.190,0.168,0.289,0.271,0.269,0.146,0.089,east-southeast,0.9,Yes
2019/08/25,02:20,0.192,0.169,0.290,0.271,0.268,0.146,0.091,south-southeast,0.9,Yes
2019/08/25,02:30,0.190,0.169,0.290,0.273,0.268,0.148,0.090,south,1.5,Yes
2019/08/25,02:40,0.190,0.169,0.290,0.272,0.272,0.146,0.092,south-southeast,0.9,Yes
2019/08/25,02:50,0.191,0.169,0.292,0.274,0.268,0.148,0.091,south-southeast,1.4,Yes
2019/08/25,03:00,0.192,0.169,0.287,0.273,0.270,0.147,0.092,south,2.8,No
2019/08/25,03:10,0.190,0.170,0.291,0.270,0.270,0.147,0.092,south,3.7,No
2019/08/25,03:20,0.192,0.169,0.291,0.274,0.267,0.148,0.091,south,5.0,No
2019/08/25,03:30,0.189,0.169,0.290,0.272,0.270,0.147,0.092,south,4.2,No
2019/08/25,03:40,0.190,0.170,0.292,0.272,0.270,0.146,0.091,south,3.7,No
2019/08/25,03:50,0.191,0.167,0.289,0.272,0.268,0.147,0.090,south,3.1,No
2019/08/25,04:00,0.190,0.168,0.289,0.271,0.271,0.146,0.091,south-southeast,3.4,No
2019/08/25,04:10,0.191,0.167,0.289,0.272,0.269,0.147,0.090,south,3.4,No
2019/08/25,04:20,0.190,0.168,0.289,0.270,0.267,0.146,0.091,south,2.5,No
2019/08/25,04:30,0.190,0.169,0.291,0.270,0.270,0.146,0.090,south-southwest,2.7,No
2019/08/25,04:40,0.192,0.167,0.289,0.274,0.267,0.147,0.091,south,2.0,No
2019/08/25,04:50,0.190,0.170,0.289,0.270,0.268,0.146,0.090,south-southeast,2.3,Yes
2019/08/25,05:00,0.189,0.167,0.289,0.272,0.270,0.146,0.090,south,2.5,No
2019/08/25,05:10,0.190,0.170,0.287,0.272,0.267,0.146,0.090,south,2.3,No
2019/08/25,05:20,0.189,0.168,0.291,0.270,0.271,0.146,0.091,south,1.4,No
2019/08/25,05:30,0.190,0.168,0.288,0.274,0.268,0.146,0.090,south-southwest,1.5,No
2019/08/25,05:40,0.189,0.169,0.290,0.272,0.268,0.145,0.091,south,1.1,No
2019/08/25,05:50,0.189,0.168,0.290,0.270,0.270,0.146,0.089,southeast,1.1,No
2019/08/25,06:00,0.192,0.168,0.288,0.272,0.268,0.146,0.091,south-southeast,1.3,No
2019/08/25,06:10,0.190,0.169,0.291,0.271,0.266,0.145,0.091,south-southeast,1.3,No
2019/08/25,06:20,0.191,0.168,0.290,0.272,0.271,0.146,0.090,south-southeast,1.6,No
2019/08/25,06:30,0.191,0.169,0.290,0.273,0.268,0.146,0.091,south-southwest,1.1,No
2019/08/25,06:40,0.189,0.168,0.292,0.269,0.266,0.146,0.090,south-southwest,2.4,No
2019/08/25,06:50,0.189,0.168,0.288,0.273,0.269,0.148,0.090,south,1.6,No
2019/08/25,07:00,0.191,0.168,0.292,0.271,0.268,0.145,0.091,south,1.6,No
2019/08/25,07:10,0.189,0.169,0.290,0.271,0.268,0.146,0.091,south,2.1,No
2019/08/25,07:20,0.191,0.170,0.287,0.272,0.269,0.147,0.089,south,2.7,No
2019/08/25,07:30,0.191,0.168,0.289,0.270,0.267,0.146,0.091,south,2.2,No
2019/08/25,07:40,0.190,0.169,0.290,0.268,0.266,0.146,0.091,south,2.1,No
2019/08/25,07:50,0.192,0.169,0.288,0.271,0.271,0.146,0.090,south-southeast,2.3,No
2019/08/25,08:00,0.192,0.168,0.288,0.272,0.268,0.145,0.090,south-southwest,1.6,No
2019/08/25,08:10,0.190,0.167,0.291,0.271,0.266,0.146,0.089,south,1.3,No
2019/08/25,08:20,0.188,0.169,0.289,0.271,0.266,0.147,0.090,south,1.7,No
2019/08/25,08:30,0.189,0.169,0.286,0.268,0.268,0.146,0.090,south-southwest,2.7,No
2019/08/25,08:40,0.192,0.169,0.291,0.270,0.270,0.145,0.089,south-southwest,2.4,No
2019/08/25,08:50,0.190,0.167,0.291,0.274,0.268,0.146,0.089,south,1.2,No
2019/08/25,09:00,0.189,0.167,0.289,0.274,0.267,0.147,0.089,south,1.4,No
2019/08/25,09:10,0.189,0.167,0.287,0.272,0.266,0.146,0.090,south,1.7,No
2019/08/25,09:20,0.189,0.167,0.291,0.272,0.267,0.145,0.090,south-southwest,1.4,No
2019/08/25,09:30,0.189,0.167,0.290,0.271,0.267,0.146,0.090,south-southeast,1.8,No
2019/08/25,09:40,0.190,0.168,0.287,0.272,0.268,0.146,0.090,south-southeast,2.2,No
2019/08/25,09:50,0.190,0.167,0.285,0.271,0.268,0.146,0.090,south-southeast,1.9,No
2019/08/25,10:00,0.189,0.168,0.287,0.271,0.267,0.145,0.090,southeast,2.3,No
2019/08/25,10:10,0.190,0.167,0.292,0.271,0.268,0.146,0.090,east-southeast,1.4,No
2019/08/25,10:20,0.189,0.168,0.290,0.272,0.267,0.146,0.091,southeast,2.1,No
2019/08/25,10:30,0.190,0.168,0.289,0.271,0.269,0.146,0.090,southeast,2.5,No
2019/08/25,10:40,0.189,0.167,0.287,0.272,0.267,0.147,0.090,east-southeast,2.3,No
2019/08/25,10:50,0.190,0.169,0.288,0.271,0.268,0.147,0.090,southeast,2.5,No
2019/08/25,11:00,0.190,0.168,0.287,0.270,0.266,0.146,0.090,south-southeast,3.0,No
2019/08/25,11:10,0.190,0.168,0.287,0.272,0.268,0.147,0.090,south-southeast,3.2,No
2019/08/25,11:20,0.190,0.168,0.287,0.271,0.267,0.147,0.091,south-southeast,3.0,No
2019/08/25,11:30,0.189,0.167,0.287,0.271,0.268,0.147,0.091,south-southeast,3.5,No
2019/08/25,11:40,0.191,0.168,0.288,0.272,0.267,0.147,0.090,southeast,3.4,No
2019/08/25,11:50,0.189,0.167,0.288,0.271,0.267,0.146,0.091,southeast,1.9,No
2019/08/25,12:00,0.190,0.168,0.288,0.271,0.267,0.146,0.090,southeast,2.8,No
2019/08/25,12:10,0.190,0.167,0.288,0.270,0.267,0.147,0.089,southeast,2.6,No
2019/08/25,12:20,0.189,0.168,0.288,0.272,0.267,0.147,0.090,southeast,2.2,No
2019/08/25,12:30,0.191,0.168,0.289,0.271,0.268,0.147,0.090,southeast,2.7,No
2019/08/25,12:40,0.191,0.168,0.290,0.273,0.269,0.147,0.090,southeast,3.0,No
2019/08/25,12:50,0.189,0.167,0.288,0.271,0.267,0.146,0.089,southeast,2.3,No
2019/08/25,13:00,0.190,0.168,0.289,0.273,0.268,0.145,0.090,southeast,2.2,No
2019/08/25,13:10,0.190,0.169,0.290,0.272,0.268,0.146,0.090,southeast,2.0,No
2019/08/25,13:20,0.190,0.168,0.289,0.273,0.268,0.146,0.090,southeast,2.5,No
2019/08/25,13:30,0.190,0.168,0.290,0.272,0.269,0.147,0.089,southeast,3.0,No
2019/08/25,13:40,0.189,0.168,0.290,0.272,0.268,0.147,0.089,southeast,3.5,No
2019/08/25,13:50,0.190,0.169,0.291,0.272,0.268,0.146,0.090,south-southeast,2.6,No
2019/08/25,14:00,0.190,0.169,0.290,0.272,0.270,0.147,0.090,south-southeast,1.4,No
2019/08/25,14:10,0.190,0.168,0.289,0.273,0.268,0.147,0.089,south,2.7,No
2019/08/25,14:20,0.190,0.167,0.288,0.271,0.266,0.146,0.090,south,3.5,No
2019/08/25,14:30,0.189,0.168,0.287,0.270,0.266,0.145,0.089,south-southeast,2.6,No
2019/08/25,14:40,0.188,0.167,0.288,0.269,0.265,0.147,0.090,south,2.7,No
2019/08/25,14:50,0.189,0.166,0.293,0.274,0.266,0.147,0.089,south-southeast,4.1,No
2019/08/25,15:00,0.192,0.169,0.292,0.276,0.267,0.147,0.089,south-southeast,4.9,No
2019/08/25,15:10,0.192,0.169,0.290,0.273,0.271,0.146,0.091,south-southeast,4.1,No
2019/08/25,15:20,0.191,0.168,0.289,0.272,0.271,0.145,0.090,south-southeast,4.6,No
2019/08/25,15:30,0.191,0.169,0.287,0.271,0.269,0.146,0.089,south-southeast,3.8,No
2019/08/25,15:40,0.189,0.167,0.288,0.272,0.267,0.146,0.089,south-southeast,3.1,No
2019/08/25,15:50,0.189,0.167,0.293,0.275,0.268,0.145,0.090,south-southeast,3.6,No
2019/08/25,16:00,0.189,0.168,0.292,0.275,0.268,0.147,0.089,south-southeast,3.0,No
2019/08/25,16:10,0.189,0.169,0.288,0.271,0.265,0.147,0.090,south-southeast,3.8,No
2019/08/25,16:20,0.191,0.169,0.289,0.272,0.266,0.148,0.091,south-southeast,3.4,No
2019/08/25,16:30,0.191,0.169,0.289,0.270,0.267,0.146,0.089,south-southeast,4.0,No
2019/08/25,16:40,0.192,0.167,0.294,0.275,0.267,0.146,0.089,south-southeast,3.9,No
2019/08/25,16:50,0.190,0.167,0.292,0.275,0.268,0.146,0.089,south,3.4,No
2019/08/25,17:00,0.190,0.170,0.290,0.271,0.269,0.146,0.091,south-southeast,3.0,No
2019/08/25,17:10,0.190,0.169,0.288,0.271,0.267,0.147,0.090,south-southeast,3.3,No
2019/08/25,17:20,0.193,0.168,0.293,0.275,0.266,0.147,0.090,southeast,2.4,No
2019/08/25,17:30,0.192,0.168,0.292,0.274,0.268,0.146,0.089,south-southeast,2.8,No
2019/08/25,17:40,0.190,0.169,0.289,0.273,0.271,0.146,0.090,south,3.2,No
2019/08/25,17:50,0.190,0.168,0.289,0.273,0.270,0.147,0.090,south,3.1,No
2019/08/25,18:00,0.192,0.168,0.293,0.276,0.269,0.148,0.089,south-southwest,2.0,No
2019/08/25,18:10,0.191,0.167,0.291,0.274,0.266,0.145,0.090,west-southwest,1.6,No
2019/08/25,18:20,0.189,0.169,0.288,0.272,0.272,0.147,0.090,northwest,0.9,No
2019/08/25,18:30,0.190,0.168,0.291,0.272,0.270,0.147,0.090,west-northwest,1.8,No
2019/08/25,18:40,0.193,0.168,0.292,0.275,0.266,0.147,0.090,northwest,2.5,No
2019/08/25,18:50,0.191,0.170,0.290,0.273,0.268,0.146,0.091,west-northwest,3.8,No
2019/08/25,19:00,0.189,0.169,0.290,0.272,0.272,0.147,0.090,west-northwest,2.2,No
2019/08/25,19:10,0.192,0.170,0.292,0.274,0.267,0.147,0.089,west-northwest,4.1,No
2019/08/25,19:20,0.191,0.168,0.290,0.274,0.268,0.147,0.090,west-northwest,3.0,No
2019/08/25,19:30,0.190,0.168,0.290,0.272,0.272,0.147,0.090,west-northwest,2.8,No
2019/08/25,19:40,0.192,0.169,0.293,0.275,0.268,0.147,0.089,west-northwest,3.5,No
2019/08/25,19:50,0.191,0.168,0.290,0.273,0.268,0.146,0.090,west-northwest,3.5,No
2019/08/25,20:00,0.190,0.169,0.290,0.272,0.271,0.146,0.090,west-northwest,4.0,No
2019/08/25,20:10,0.192,0.169,0.292,0.275,0.269,0.146,0.090,west-northwest,4.3,No
2019/08/25,20:20,0.192,0.168,0.289,0.273,0.267,0.146,0.091,west-northwest,5.6,No
2019/08/25,20:30,0.190,0.168,0.292,0.273,0.272,0.147,0.090,west-northwest,4.8,No
2019/08/25,20:40,0.191,0.170,0.291,0.275,0.269,0.146,0.091,west-northwest,4.2,No
2019/08/25,20:50,0.191,0.168,0.290,0.272,0.267,0.147,0.091,northwest,3.6,No
2019/08/25,21:00,0.190,0.170,0.292,0.271,0.270,0.146,0.090,northwest,3.3,No
2019/08/25,21:10,0.192,0.169,0.291,0.274,0.267,0.147,0.090,west-northwest,3.9,No
2019/08/25,21:20,0.191,0.169,0.290,0.272,0.267,0.147,0.091,west-northwest,3.0,No
2019/08/25,21:30,0.191,0.169,0.292,0.273,0.271,0.146,0.089,northwest,1.9,No
2019/08/25,21:40,0.193,0.168,0.292,0.274,0.268,0.147,0.089,west-northwest,2.2,No
2019/08/25,21:50,0.191,0.169,0.291,0.271,0.268,0.147,0.090,west-northwest,1.4,No
2019/08/25,22:00,0.190,0.168,0.292,0.274,0.271,0.146,0.090,west-northwest,1.8,No
2019/08/25,22:10,0.193,0.168,0.290,0.275,0.268,0.147,0.090,west,2.2,No
2019/08/25,22:20,0.192,0.169,0.291,0.272,0.269,0.147,0.090,west-northwest,2.4,No
2019/08/25,22:30,0.190,0.169,0.292,0.275,0.272,0.147,0.090,west,1.7,No
2019/08/25,22:40,0.192,0.170,0.289,0.272,0.267,0.147,0.090,west,1.8,No
2019/08/25,22:50,0.190,0.169,0.293,0.274,0.270,0.146,0.090,west-northwest,1.4,No
2019/08/25,23:00,0.193,0.168,0.291,0.273,0.270,0.147,0.091,northwest,1.1,No
2019/08/25,23:10,0.191,0.170,0.291,0.272,0.268,0.147,0.090,west-northwest,1.6,No
2019/08/25,23:20,0.190,0.169,0.292,0.276,0.270,0.146,0.090,west-northwest,4.4,No
2019/08/25,23:30,0.192,0.169,0.291,0.273,0.269,0.147,0.091,northwest,3.0,No
2019/08/25,23:40,0.191,0.168,0.292,0.273,0.268,0.146,0.089,north-northwest,1.0,No
2019/08/25,23:50,0.191,0.170,0.291,0.275,0.271,0.147,0.091,west-northwest,0.6,Yes
